K5TCS Weather Reports


Display with metric or nautical units.
time (UTC)temp
F
wind
direction
speed
MPH
gust
MPH
rain 1hr
in
rain 24hr
in
rain mn
in
humidity
%
barometer
mb
20260905020036 68 0.0 3.0 0.00 0.29 0.29 21 1025.7
20260905015015 69 0.0 0.0 0.00 0.29 0.29 22 1025.4
20260905014017 69 0.0 0.0 0.00 0.29 0.29 26 1025.0
20260905013017 70 0.0 2.0 0.00 0.29 0.29 31 1025.0
20260905012017 71 338 1.0 4.0 0.00 0.29 0.29 31 1025.5
20260905011017 70 293 1.0 4.0 0.00 0.29 0.29 29 1024.5
20260905010017 71 0.0 0.0 0.00 0.29 0.29 27 1024.3
20260905005037 71 0.0 0.0 0.00 0.29 0.29 29 1024.7
20260905004017 71 0.0 0.0 0.00 0.29 0.29 30 1024.8
20260905003038 71 0.0 0.0 0.00 0.29 0.29 29 1024.7
20260905002017 70 0.0 2.0 0.00 0.29 0.29 29 1024.2
20260905001017 70 315 1.0 3.0 0.00 0.29 0.29 29 1024.7
20260905000017 70 338 1.0 4.0 0.00 0.29 0.29 29 1024.6
20260904235017 70 0.0 3.0 0.00 0.29 0.29 30 1024.7
20260904234017 70 0.0 0.0 0.00 0.30 0.29 29 1024.6
20260904233037 71 0.0 3.0 0.00 0.30 0.29 28 1025.2
20260904232018 71 0.0 4.0 0.00 0.33 0.29 27 1025.2
20260904231017 70 338 1.0 3.0 0.00 0.38 0.29 27 1024.6
20260904230017 69 0.0 4.0 0.00 0.38 0.29 27 1024.4
20260904225017 69 315 1.0 4.0 0.03 0.38 0.29 25 1024.1
20260904224017 68 315 2.0 6.0 0.07 0.38 0.29 22 1024.6
20260904223017 67 315 3.0 7.0 0.11 0.38 0.29 18 1024.5
20260904222017 65 293 3.0 5.0 0.12 0.38 0.29 12 1023.9
20260904221037 62 270 4.0 10.0 0.12 0.38 0.29 14 1023.2
20260904220017 64 270 3.0 13.0 0.15 0.38 0.29 12 1023.8
20260904215017 66 293 1.0 3.0 0.16 0.35 0.26 12 1023.8
20260904214017 65 0.0 3.0 0.12 0.31 0.22 12 1023.6
20260904213017 66 0.0 3.0 0.09 0.29 0.18 12 1024.2
20260904212017 65 338 1.0 4.0 0.14 0.28 0.17 13 1023.4
20260904211017 64 0 2.0 5.0 0.16 0.28 0.17 12 1023.2
20260904210017 65 23 1.0 7.0 0.13 0.25 0.14 12 1023.9
20260904205016 63 45 2.0 13.0 0.09 0.21 0.10 11 1023.4
20260904204016 64 68 1.0 6.0 0.09 0.21 0.10 12 1023.4
20260904203017 66 68 3.0 9.0 0.08 0.20 0.09 19 1023.9
20260904202017 71 45 2.0 6.0 0.03 0.14 0.03 29 1025.5
20260904201017 74 45 2.0 7.0 0.01 0.12 0.01 32 1026.1
20260904200016 75 0 4.0 11.0 0.01 0.12 0.01 37 1026.4
20260904195016 75 0 3.0 11.0 0.01 0.12 0.01 34 1026.3
20260904194017 72 23 3.0 7.0 0.01 0.12 0.01 28 1025.4
20260904193017 72 293 3.0 7.0 0.01 0.12 0.01 40 1025.9
20260904192017 73 293 4.0 10.0 0.00 0.21 0.00 43 1026.4
20260904191016 75 293 4.0 13.0 0.00 0.30 0.00 42 1027.2
20260904190016 75 293 3.0 10.0 0.00 0.40 0.00 42 1027.0
20260904185016 74 293 5.0 12.0 0.00 0.42 0.00 42 1027.1
20260904184016 74 315 4.0 10.0 0.00 0.45 0.00 43 1027.1
20260904183016 73 315 5.0 12.0 0.00 0.46 0.00 45 1027.2
20260904182016 74 270 4.0 12.0 0.00 0.46 0.00 46 1027.4
20260904181016 81 158 2.0 15.0 0.00 0.46 0.00 44 1029.1
20260904180016 82 135 1.0 5.0 0.00 0.46 0.00 38 1029.2
20260904175016 82 135 2.0 8.0 0.00 0.46 0.00 38 1029.2
20260904174016 81 113 3.0 13.0 0.00 0.46 0.00 40 1028.6
20260904173016 81 135 3.0 11.0 0.00 0.46 0.00 39 1028.7
20260904172036 80 135 1.0 9.0 0.00 0.46 0.00 40 1028.8
20260904171016 79 45 1.0 5.0 0.00 0.46 0.00 41 1029.3
20260904170016 78 0.0 3.0 0.00 0.46 0.00 41 1028.8
20260904165016 78 0.0 1.0 0.00 0.46 0.00 41 1028.9
20260904164036 79 0.0 3.0 0.00 0.46 0.00 41 1029.3
20260904163016 80 0.0 3.0 0.00 0.46 0.00 39 1030.0
20260904162036 79 0.0 1.0 0.00 0.46 0.00 39 1029.4
20260904161043 78 0.0 1.0 0.00 0.46 0.00 39 1029.5
20260904160016 77 270 1.0 6.0 0.00 0.46 0.00 38 1028.8
20260904155016 77 338 1.0 6.0 0.00 0.46 0.00 37 1028.8
20260904154016 76 338 2.0 6.0 0.00 0.46 0.00 36 1028.4
20260904153016 75 270 3.0 7.0 0.00 0.46 0.00 36 1028.4
20260904152016 75 270 2.0 9.0 0.00 0.46 0.00 35 1028.3
20260904151016 74 270 2.0 6.0 0.00 0.46 0.00 33 1027.9
20260904150016 73 270 2.0 11.0 0.00 0.46 0.00 32 1027.2
20260904145036 72 293 3.0 7.0 0.00 0.46 0.00 32 1027.4
20260904144016 71 315 3.0 10.0 0.00 0.46 0.00 31 1027.5
20260904143016 71 293 2.0 6.0 0.00 0.46 0.00 30 1027.2
20260904142016 70 315 2.0 6.0 0.00 0.46 0.00 29 1026.6
20260904141036 69 315 1.0 5.0 0.00 0.46 0.00 29 1026.6
20260904140015 67 270 2.0 7.0 0.00 0.46 0.00 29 1026.1
20260904135016 66 293 2.0 5.0 0.00 0.46 0.00 28 1025.5
20260904134016 64 270 1.0 5.0 0.00 0.46 0.00 27 1025.3
20260904133016 63 270 1.0 4.0 0.00 0.46 0.00 27 1024.9
20260904132016 63 0.0 3.0 0.00 0.46 0.00 25 1024.8
20260904131015 61 0.0 2.0 0.00 0.46 0.00 25 1024.7
20260904130015 62 0.0 0.0 0.00 0.46 0.00 25 1024.6
20260904125017 61 0.0 0.0 0.00 0.46 0.00 25 1024.7
20260904124015 61 0.0 0.0 0.00 0.46 0.00 24 1023.9
20260904123018 60 0.0 0.0 0.00 0.46 0.00 25 1023.6
20260904122017 61 0.0 0.0 0.00 0.46 0.00 25 1024.0
20260904121017 62 0.0 1.0 0.00 0.46 0.00 27 1023.8
20260904120017 63 0.0 1.0 0.00 0.46 0.00 27 1023.9
20260904115017 63 248 1.0 5.0 0.00 0.46 0.00 28 1023.7
20260904114017 63 248 1.0 4.0 0.00 0.46 0.00 28 1024.6
20260904113017 63 0.0 3.0 0.00 0.46 0.00 27 1024.6
20260904112017 63 248 1.0 3.0 0.00 0.46 0.00 27 1024.6
20260904111017 63 0.0 2.0 0.00 0.46 0.00 26 1025.5
20260904110017 63 0.0 0.0 0.00 0.46 0.00 27 1025.7
20260904105017 64 0.0 4.0 0.00 0.46 0.00 28 1025.7
20260904104017 64 0.0 3.0 0.00 0.46 0.00 28 1025.7
20260904103017 65 270 1.0 6.0 0.00 0.46 0.00 28 1025.7
20260904102017 65 248 2.0 7.0 0.00 0.46 0.00 27 1026.0
20260904101017 65 248 4.0 10.0 0.00 0.46 0.00 27 1025.1
20260904100017 65 270 4.0 10.0 0.00 0.46 0.00 26 1025.0
20260904095017 65 270 5.0 11.0 0.00 0.46 0.00 26 1024.9
20260904094017 64 270 3.0 7.0 0.00 0.46 0.00 26 1025.8
20260904093017 64 248 2.0 8.0 0.00 0.46 0.00 27 1025.6
20260904092017 64 203 1.0 7.0 0.00 0.46 0.00 27 1025.9
20260904091017 64 225 1.0 6.0 0.00 0.46 0.00 29 1025.3
20260904090017 65 203 2.0 7.0 0.00 0.46 0.00 30 1025.8
20260904085017 65 203 2.0 11.0 0.00 0.46 0.00 31 1025.8
20260904084037 65 203 2.0 9.0 0.00 0.46 0.00 30 1025.3
20260904083017 65 203 2.0 5.0 0.00 0.46 0.00 30 1025.4
20260904082017 65 203 3.0 8.0 0.00 0.46 0.00 29 1025.6
20260904081016 65 203 4.0 9.0 0.00 0.46 0.00 29 1025.2
20260904080017 65 203 4.0 12.0 0.00 0.46 0.00 28 1025.1
20260904075037 64 203 3.0 9.0 0.00 0.46 0.00 25 1024.9
20260904074017 63 203 2.0 7.0 0.00 0.46 0.00 24 1024.9
20260904073017 63 203 2.0 6.0 0.00 0.46 0.00 24 1025.3
20260904072017 64 180 1.0 10.0 0.00 0.46 0.00 25 1025.3
20260904071016 64 180 2.0 10.0 0.00 0.46 0.00 25 1026.6
20260904070016 64 203 3.0 11.0 0.00 0.46 0.00 26 1026.3
20260904065017 64 203 3.0 11.0 0.00 0.46 0.00 28 1026.6
20260904064037 64 203 4.0 10.0 0.00 0.46 0.00 29 1028.5
20260904063016 65 203 3.0 12.0 0.00 0.46 0.00 29 1028.5
20260904062017 65 203 3.0 11.0 0.00 0.46 0.00 29 1029.0
20260904061016 65 203 3.0 10.0 0.00 0.46 0.00 29 1029.6
20260904060016 65 203 3.0 9.0 0.00 0.46 0.46 29 1029.6
20260904055036 64 203 2.0 9.0 0.00 0.46 0.46 28 1029.5
20260904054016 62 203 1.0 9.0 0.00 0.46 0.46 24 1028.7
20260904053016 61 0.0 0.0 0.00 0.46 0.46 26 1028.7
20260904052016 62 0.0 0.0 0.00 0.46 0.46 29 1028.8
20260904051016 63 0.0 0.0 0.00 0.46 0.46 32 1028.5
20260904050016 64 0.0 0.0 0.00 0.46 0.46 34 1028.5
20260904045016 65 0.0 3.0 0.00 0.46 0.46 35 1029.0
20260904044016 66 293 1.0 3.0 0.00 0.46 0.46 34 1029.0
20260904043016 66 270 1.0 3.0 0.00 0.46 0.46 33 1029.2
20260904042016 66 270 1.0 4.0 0.00 0.46 0.46 33 1029.2
20260904041016 66 270 1.0 5.0 0.00 0.46 0.46 32 1029.2
20260904040016 66 270 1.0 5.0 0.00 0.46 0.46 32 1029.3
20260904035016 66 270 2.0 5.0 0.00 0.46 0.46 31 1029.1
20260904034036 65 248 3.0 7.0 0.00 0.46 0.46 31 1028.2
20260904033016 65 248 1.0 5.0 0.00 0.46 0.46 31 1028.2
20260904032016 66 270 3.0 6.0 0.00 0.46 0.46 30 1028.1
20260904031016 65 270 3.0 6.0 0.00 0.46 0.46 30 1028.1
20260904030036 65 248 3.0 9.0 0.00 0.46 0.46 29 1027.9
20260904025016 65 248 2.0 9.0 0.00 0.46 0.46 28 1027.2
20260904024015 64 248 3.0 7.0 0.00 0.46 0.46 27 1025.9
20260904023015 63 248 1.0 6.0 0.00 0.46 0.46 24 1025.8
20260904022015 65 270 2.0 8.0 0.00 0.46 0.46 28 1026.2
20260904021015 65 270 3.0 7.0 0.00 0.46 0.46 28 1024.8